Location: Casilda
(33.0440°S, 61.1680°W)
Time: 16:17:56
(UTC-03:00)

ISS - Pass Details

Date: 18 September 2020
Orbit: 419 x 421 km, 51.6° (Epoch: 27 September)

Event Time Altitude Azimuth Distance (km) Brightness Sun altitude
Rises 06:23:50 0° 360° (N) 2,359 0.0 -8.2°
Reaches altitude 10° 06:27:10 10° 36° (NE) 1,508 -0.5 -7.5°
Maximum altitude 06:28:17 11° 55° (NE) 1,435 -0.2 -7.3°
Drops below altitude 10° 06:29:28 10° 75° (ENE) 1,526 0.5 -7.0°
Sets 06:32:46 0° 110° (ESE) 2,392 1.8 -6.3°
